Regional Weather Roundup
Issued by NWS

Home | Current Version | Previous Version | Text Only | Print | Product List | Glossary Off
Versions: 1 2 3 4 5 6 7 8 9 10 11 12 13 14 15 16 17 18 19 20 21 22 23 24 25 26 27 28 29 30 31 32 33 34 35 36 37 38 39 40 41 42 43 44 45 46 47 48 49

000
ASUS45 KCYS 130010
RWRWY

WYOMING REGIONAL WEATHER ROUNDUP
NATIONAL WEATHER SERVICE CHEYENNE WY
600 PM MDT SAT JUL 12 2014

NOTE:  "FAIR" INDICATES FEW OR NO CLOUDS BELOW 12,000 FEET
WITH NO SIGNIFICANT WEATHER AND/OR OBSTRUCTIONS TO VISIBILITY.

WYZ001-130100-
YELLOWSTONE NATIONAL PARK

CITY           SKY/WX    TMP DP  RH WIND       PRES   REMARKS
LK YELLOWSTONE   N/A     60  53  77 VRB5      30.51R
6HR MIN TEMP:  53; 6HR MAX TEMP:  65; 6HR PCP:  0.77;

W YELLOWSTONE  NOT AVBL

$$
WYZ002>013-054>058-071-098>099-130100-
NORTHERN WYOMING

CITY           SKY/WX    TMP DP  RH WIND       PRES   REMARKS
JACKSON        SUNNY     79  46  31 N8        30.34S
CODY           CLOUDY    73  54  49 N6        30.30R
GREYBULL       PTSUNNY   87  44  22 NW15      30.18R
6HR MIN TEMP:  81; 6HR MAX TEMP:  91;

WORLAND        CLOUDY    84  50  30 SW7       30.21R
6HR MIN TEMP:  79; 6HR MAX TEMP:  87;

SHERIDAN       MOSUNNY   83  51  33 NW8       30.22F
6HR MIN TEMP:  79; 6HR MAX TEMP:  87;

BUFFALO        PTSUNNY   76  52  43 N10       30.30S
6HR MIN TEMP:  74; 6HR MAX TEMP:  80;

GILLETTE       MOSUNNY   83  51  33 N14G23    30.23R
6HR MIN TEMP:  78; 6HR MAX TEMP:  84;

HULETT         FAIR      79  50  36 MISG      30.23
NEWCASTLE      FAIR      79  50  36 N14G20    30.20

$$
WYZ014>020-022>026-101>103-130100-
CENTRAL WYOMING

CITY           SKY/WX    TMP DP  RH WIND       PRES   REMARKS
BIG PINEY      PTSUNNY   76  47  35 E10       30.37S
6HR MIN TEMP:  70; 6HR MAX TEMP:  83; 6HR PCP:  0.02;

PINEDALE       MOCLDY    72  45  37 CALM      30.39S
DUBOIS         MOCLDY    63  50  63 SE9       30.45R
LANDER         LGT RAIN  71  54  54 NW15G23   30.32R
6HR MIN TEMP:  71; 6HR MAX TEMP:  86; 6HR PCP: TRACE;

RIVERTON       LGT RAIN  67  57  70 NW20G26   30.35R
6HR MIN TEMP:  66; 6HR MAX TEMP:  84; 6HR PCP: TRACE;

CASPER         MOSUNNY   76  50  40 N16       30.28R
6HR MIN TEMP:  75; 6HR MAX TEMP:  87;

DOUGLAS        MOSUNNY   83  53  35 N14       30.24S
6HR MIN TEMP:  77; 6HR MAX TEMP:  86;


$$
WYZ021-027>030-104>119-130100-
SOUTHERN WYOMING

CITY           SKY/WX    TMP DP  RH WIND       PRES   REMARKS
EVANSTON       SUNNY     79  45  29 E3        30.35F
6HR MIN TEMP:  73; 6HR MAX TEMP:  83;

KEMMERER       CLEAR    N/A N/A N/A N7        30.38S
ROCK SPRINGS   MOSUNNY   84  42  22 VRB6      30.32S
6HR MIN TEMP:  74; 6HR MAX TEMP:  84;

DIXON          FAIR      84  45  25 N7G18     30.32S
RAWLINS        MOSUNNY   78  40  25 NE9G17    30.34S
6HR MIN TEMP:  75; 6HR MAX TEMP:  84;

SARATOGA       FAIR      79  43  27 N3        30.36S
LARAMIE        MOSUNNY   73  50  44 E13       30.38F
6HR MIN TEMP:  65; 6HR MAX TEMP:  74; 6HR PCP: TRACE;

CHEYENNE       MOSUNNY   75  50  41 NE7       30.33R
6HR MIN TEMP:  68; 6HR MAX TEMP:  79;

TORRINGTON     SUNNY     80  61  52 SE13      30.17F
6HR MIN TEMP:  74; 6HR MAX TEMP:  86;


$$



USA.gov is the U.S. government's official web portal to all federal, state and local government web resources and services.